Location: Kawakawa
(35.3830°S, 174.0670°E)
Time: 02:26:00
(UTC+13:00)

Cosmos 1862 - Pass Details

Date: 24 January 2019
Orbit: 540 x 556 km, 82.5° (Epoch: 19 February)

Event Time Altitude Azimuth Distance (km) Brightness Sun altitude
Rises 22:23:52 0° 188° (S) 2,749 7.7 -18.9°
Reaches altitude 10° 22:26:03 10° 189° (S) 1,844 6.7 -19.3°
Maximum altitude 22:30:07 80° 276° (W) 564 3.3 -19.9°
Enters shadow 22:31:18 44° 355° (N) 763 3.7 -20.1°
